SL-8 DEB

Satellite information

Favourite Embed

Satellite Type and Status

DEBRISIN ORBIT

Key statistics

Satellite SL-8 DEB at a glance.

Uptime

17624

Days in orbit

Revolutions

≈ 13.8

Per day

Orbit

LEO

Low Earth Orbit

Inclination

83.0

Latest

Satellite identification and parameters

Extended collection of information and parameters for SL-8 DEB.

Object identification

Identified? True

Debris? True

Object name: SL-8 DEB

International designator: 1977-087C

Object number (NORAD): 24818

Object ID (CCSDS): 24818

Country: COMMONWEALTH OF INDEPENDENT STATES (CIS)

Current information (Y/N): Y

RCS size: SMALL

Orbital parameters

Period: 104.189 minutes

Inclination: 82.9676 deg

SMA: 7334.571 km

Apoapsis: 978.886 km

Periapsis: 933.986 km

RAAN: 233.7162 deg

Eccentricy: 0.00306086

Argument of periapsis: 228.6682 deg

Mean anomaly: 161.0527 deg

Mean motion: 13.8210389 rev/day

Mean motion (dot): 0.0000058 rev/day2

B* drag term: 0.00052367016 1/REarth

Two-line elements (TLE)

Creation date: Dec. 12, 2025, 3:16 a.m.

Reference frame: TEME

Reference center: EARTH

Epoch: Dec. 11, 2025, 4:45 p.m. UTC

TLE line 0: 0 SL-8 DEB

TLE line 1: 1 24818U 77087C 25345.69822302 .00000580 00000-0 52367-3 0 9992

TLE line 2: 2 24818 82.9676 233.7162 0030609 228.6682 161.0527 13.82103890423735

Live tracking on map

Real-time ground track for satellite SL-8 DEB.

In-orbit conjunctions

A list of the most updated potential collisions computed for object SL-8 DEB.

Target Orbit TCA Probability of collision Miss distance Type
SL-8 R/B LEO 2025-11-24 15:49:39 0.0002267556 159.0 (m) ROCKET BODY
GB 1 LEO 2025-06-24 14:51:02 0.0002375993 962.0 (m) PAYLOAD
SL-8 R/B LEO 2025-03-12 10:24:29 0.002652428 56.0 (m) ROCKET BODY

Associated space launch

The soviet Zenit-2M (Gektor, 11F690) was an improved version of the Zenit-2 area surveillance reconnaissance satellite. It was part of the Vostok-based Zenit-family.

SL-8 DEB was lifted into orbit during the mission ‘Soyuz U | Zenit-2M 81’, on board a Soyuz U space rocket.

The launch took place on Sept. 13, 1977, 3:10 p.m. from 43/3 (43L).

For more information about the launch, click the button.

Launch to space Soyuz U | Zenit-2M 81
Soyuz U | Zenit-2M 81

Agency: N/A

Status: Launch Successful

Launch date: Sept. 13, 1977, 3:10 p.m. UTC

Rocket: Soyuz U

Launch pad: 43/3 (43L)

Location: Plesetsk Cosmodrome, Russian Federation

...

Latest news about this satellite

There are no fresh news available about this satellite. Check back as we update our databases every day.


Newsletter sign-up

Weekly statistics, charts and insights to help you stay on top of the space industry.